Вернуться в каталог

STARLINK-3821

АктивенСвязьVLEO
NORAD 52357·PAYLOAD·🇺🇸 United States

Запущен Apr 29, 2022 с Cape Canaveral Space Force Station

Loading…

Ближайшие Пролёты (ближайшие 24 часа)

TLE

СвежийSource: CelesTrak SupGP

Эпоха: Sep 15, 2026, 01:09 UTC

1 52357C 22045AC  26258.04840278 -.00027184  00000+0 -80336-3 0  2585
2 52357  53.1591  54.9909 0000944  75.2746 269.3252 15.34396194    17

Отслеживайте STARLINK-3821 в реальном времени с AllMySat

Download on the App Store